Time,TemperatureF,DewpointF,PressureIn,WindDirection,WindDirectionDegrees,WindSpeedMPH,WindSpeedGustMPH,Humidity,HourlyPrecipIn,Conditions,Clouds,dailyrainin,SoftwareType,DateUTC
2013-03-18 00:08:00,28.4,9.0,29.95,West,281,8.0,17.0,44,0.00,,,0.10,weatherlink.com 1.10,2013-03-18 06:08:00,
2013-03-18 00:23:00,27.6,9.0,29.95,West,279,5.0,12.0,46,0.00,,,0.10,weatherlink.com 1.10,2013-03-18 06:23:00,
2013-03-18 00:38:00,27.3,9.0,29.96,West,274,7.0,12.0,46,0.00,,,0.10,weatherlink.com 1.10,2013-03-18 06:38:00,
2013-03-18 00:53:00,26.7,9.0,29.95,West,269,4.0,8.0,47,0.00,,,0.10,weatherlink.com 1.10,2013-03-18 06:53:00,
2013-03-18 01:08:00,26.4,9.0,29.96,West,269,0.0,5.0,47,0.00,,,0.10,weatherlink.com 1.10,2013-03-18 07:08:00,
2013-03-18 01:23:00,26.0,9.0,29.96,WSW,252,0.0,0.0,48,0.00,,,0.10,weatherlink.com 1.10,2013-03-18 07:23:00,
2013-03-18 01:38:00,25.2,8.0,29.96,WSW,253,0.0,0.0,49,0.00,,,0.10,weatherlink.com 1.10,2013-03-18 07:38:00,
2013-03-18 01:53:00,25.0,8.0,29.96,West,262,0.0,0.0,48,0.00,,,0.10,weatherlink.com 1.10,2013-03-18 07:53:00,
2013-03-18 02:08:00,24.0,8.0,29.97,West,274,5.0,5.0,50,0.00,,,0.10,weatherlink.com 1.10,2013-03-18 08:08:00,
2013-03-18 02:23:00,23.9,8.0,29.97,WNW,285,4.0,7.0,51,0.00,,,0.10,weatherlink.com 1.10,2013-03-18 08:23:00,
2013-03-18 02:39:00,24.0,8.0,29.97,WNW,294,4.0,8.0,51,0.00,,,0.10,weatherlink.com 1.10,2013-03-18 08:39:00,
2013-03-18 02:54:00,24.2,9.0,29.97,WNW,295,5.0,9.0,52,0.00,,,0.10,weatherlink.com 1.10,2013-03-18 08:54:00,
2013-03-18 03:09:00,23.9,9.0,29.96,WNW,302,5.0,9.0,54,0.00,,,0.10,weatherlink.com 1.10,2013-03-18 09:09:00,
2013-03-18 03:24:00,23.5,9.0,29.96,WNW,294,3.0,8.0,55,0.00,,,0.00,weatherlink.com 1.10,2013-03-18 09:24:00,
2013-03-18 03:39:00,23.1,9.0,29.96,NW,308,5.0,8.0,56,0.00,,,0.00,weatherlink.com 1.10,2013-03-18 09:39:00,
2013-03-18 03:54:00,22.9,10.0,29.96,NW,311,7.0,8.0,57,0.00,,,0.00,weatherlink.com 1.10,2013-03-18 09:54:00,
2013-03-18 04:09:00,22.7,10.0,29.96,NW,316,4.0,8.0,58,0.00,,,0.00,weatherlink.com 1.10,2013-03-18 10:09:00,
2013-03-18 04:24:00,22.9,10.0,29.96,NW,307,4.0,8.0,58,0.00,,,0.00,weatherlink.com 1.10,2013-03-18 10:24:00,
2013-03-18 04:39:00,23.0,10.0,29.96,NW,316,6.0,9.0,58,0.00,,,0.00,weatherlink.com 1.10,2013-03-18 10:39:00,
2013-03-18 04:54:00,23.1,10.0,29.96,NW,312,9.0,12.0,57,0.00,,,0.00,weatherlink.com 1.10,2013-03-18 10:54:00,
2013-03-18 05:09:00,23.4,10.0,29.96,WNW,298,6.0,9.0,57,0.00,,,0.00,weatherlink.com 1.10,2013-03-18 11:09:00,
2013-03-18 05:39:00,23.8,10.0,29.97,West,270,8.0,10.0,55,0.00,,,0.00,weatherlink.com 1.10,2013-03-18 11:39:00,
2013-03-18 05:54:00,23.6,10.0,29.97,WNW,285,6.0,8.0,56,0.00,,,0.00,weatherlink.com 1.10,2013-03-18 11:54:00,
2013-03-18 06:09:00,23.3,10.0,29.97,NW,310,6.0,10.0,57,0.00,,,0.00,weatherlink.com 1.10,2013-03-18 12:09:00,
2013-03-18 06:24:00,23.0,10.0,29.98,NW,315,8.0,9.0,58,0.00,,,0.00,weatherlink.com 1.10,2013-03-18 12:24:00,
2013-03-18 06:39:00,23.0,10.0,29.98,NW,316,7.0,10.0,57,0.00,,,0.00,weatherlink.com 1.10,2013-03-18 12:39:00,
2013-03-18 06:54:00,23.1,10.0,29.98,WNW,302,5.0,9.0,57,0.00,,,0.00,weatherlink.com 1.10,2013-03-18 12:54:00,
2013-03-18 07:09:00,22.8,10.0,29.99,NW,311,6.0,8.0,58,0.00,,,0.00,weatherlink.com 1.10,2013-03-18 13:09:00,
2013-03-18 07:24:00,22.7,10.0,30.00,NW,316,5.0,8.0,58,0.00,,,0.00,weatherlink.com 1.10,2013-03-18 13:24:00,
2013-03-18 07:39:00,22.9,10.0,30.01,NW,318,6.0,7.0,57,0.00,,,0.00,weatherlink.com 1.10,2013-03-18 13:39:00,
2013-03-18 07:54:00,22.9,10.0,30.01,WNW,300,5.0,8.0,57,0.00,,,0.00,weatherlink.com 1.10,2013-03-18 13:54:00,
2013-03-18 08:09:00,24.4,11.0,30.02,WNW,299,14.0,16.0,56,0.00,,,0.00,weatherlink.com 1.10,2013-03-18 14:09:00,
2013-03-18 08:24:00,25.3,12.0,30.03,West,278,6.0,17.0,57,0.00,,,0.00,weatherlink.com 1.10,2013-03-18 14:24:00,
2013-03-18 08:39:00,25.4,11.0,30.04,NW,306,10.0,14.0,55,0.00,,,0.00,weatherlink.com 1.10,2013-03-18 14:39:00,
2013-03-18 08:54:00,25.7,12.0,30.05,WNW,302,10.0,13.0,57,0.00,,,0.00,weatherlink.com 1.10,2013-03-18 14:54:00,
2013-03-18 09:09:00,26.0,13.0,30.05,West,267,16.0,16.0,58,0.00,,,0.00,weatherlink.com 1.10,2013-03-18 15:09:00,
2013-03-18 09:24:00,26.7,14.0,30.05,West,271,11.0,15.0,60,0.00,,,0.00,weatherlink.com 1.10,2013-03-18 15:24:00,
2013-03-18 09:40:00,27.9,15.0,30.06,WNW,287,9.0,20.0,58,0.00,,,0.00,weatherlink.com 1.10,2013-03-18 15:40:00,
2013-03-18 09:55:00,28.4,15.0,30.07,West,276,12.0,20.0,57,0.00,,,0.00,weatherlink.com 1.10,2013-03-18 15:55:00,
2013-03-18 10:10:00,29.2,16.0,30.07,West,276,9.0,18.0,57,0.00,,,0.00,weatherlink.com 1.10,2013-03-18 16:10:00,
2013-03-18 10:25:00,30.0,16.0,30.07,WSW,258,10.0,19.0,56,0.00,,,0.00,weatherlink.com 1.10,2013-03-18 16:25:00,
2013-03-18 10:40:00,30.3,15.0,30.08,West,263,10.0,23.0,53,0.00,,,0.00,weatherlink.com 1.10,2013-03-18 16:40:00,
2013-03-18 10:55:00,30.7,15.0,30.07,West,279,14.0,23.0,52,0.00,,,0.00,weatherlink.com 1.10,2013-03-18 16:55:00,
2013-03-18 11:10:00,31.3,15.0,30.08,WNW,297,6.0,19.0,51,0.00,,,0.00,weatherlink.com 1.10,2013-03-18 17:10:00,
2013-03-18 11:25:00,32.4,16.0,30.07,NW,315,11.0,21.0,50,0.00,,,0.00,weatherlink.com 1.10,2013-03-18 17:25:00,
2013-03-18 11:40:00,31.9,15.0,30.08,West,259,14.0,21.0,51,0.00,,,0.00,weatherlink.com 1.10,2013-03-18 17:40:00,
2013-03-18 11:56:00,31.1,17.0,30.08,NW,308,8.0,20.0,56,0.00,,,0.00,weatherlink.com 1.10,2013-03-18 17:56:00,
2013-03-18 12:10:00,31.5,16.0,30.08,WNW,287,9.0,21.0,53,0.00,,,0.00,weatherlink.com 1.10,2013-03-18 18:10:00,
2013-03-18 12:25:00,32.3,16.0,30.07,West,265,8.0,18.0,52,0.00,,,0.00,weatherlink.com 1.10,2013-03-18 18:25:00,
2013-03-18 12:40:00,32.7,15.0,30.07,WSW,255,6.0,14.0,49,0.00,,,0.00,weatherlink.com 1.10,2013-03-18 18:40:00,
2013-03-18 12:55:00,32.8,15.0,30.07,WSW,244,12.0,17.0,48,0.00,,,0.00,weatherlink.com 1.10,2013-03-18 18:55:00,
2013-03-18 13:10:00,33.7,15.0,30.06,WSW,251,11.0,20.0,47,0.00,,,0.00,weatherlink.com 1.10,2013-03-18 19:10:00,
2013-03-18 13:25:00,33.2,14.0,30.05,WSW,252,16.0,21.0,46,0.00,,,0.00,weatherlink.com 1.10,2013-03-18 19:25:00,
2013-03-18 13:40:00,33.5,15.0,30.04,WSW,256,13.0,24.0,47,0.00,,,0.00,weatherlink.com 1.10,2013-03-18 19:40:00,
2013-03-18 13:55:00,33.8,15.0,30.04,WSW,247,11.0,25.0,47,0.00,,,0.00,weatherlink.com 1.10,2013-03-18 19:55:00,
2013-03-18 14:10:00,34.3,14.0,30.04,West,259,9.0,24.0,44,0.00,,,0.00,weatherlink.com 1.10,2013-03-18 20:10:00,
2013-03-18 14:25:00,34.3,15.0,30.03,WNW,283,12.0,18.0,46,0.00,,,0.00,weatherlink.com 1.10,2013-03-18 20:25:00,
2013-03-18 14:40:00,35.2,15.0,30.03,West,259,13.0,20.0,43,0.00,,,0.00,weatherlink.com 1.10,2013-03-18 20:40:00,
2013-03-18 14:55:00,35.6,14.0,30.02,West,270,22.0,26.0,42,0.00,,,0.00,weatherlink.com 1.10,2013-03-18 20:55:00,
2013-03-18 15:10:00,36.3,13.0,30.02,WSW,245,16.0,30.0,39,0.00,,,0.00,weatherlink.com 1.10,2013-03-18 21:10:00,
2013-03-18 15:25:00,36.2,13.0,30.01,West,264,15.0,24.0,39,0.00,,,0.00,weatherlink.com 1.10,2013-03-18 21:25:00,
2013-03-18 15:40:00,36.6,15.0,30.01,West,266,17.0,22.0,41,0.00,,,0.00,weatherlink.com 1.10,2013-03-18 21:40:00,
2013-03-18 15:56:00,36.8,14.0,30.01,West,281,14.0,23.0,39,0.00,,,0.00,weatherlink.com 1.10,2013-03-18 21:56:00,
2013-03-18 16:10:00,36.8,16.0,30.01,WSW,251,17.0,28.0,42,0.00,,,0.00,weatherlink.com 1.10,2013-03-18 22:10:00,
2013-03-18 16:25:00,35.4,14.0,30.01,WSW,257,11.0,25.0,41,0.00,,,0.00,weatherlink.com 1.10,2013-03-18 22:25:00,
2013-03-18 16:40:00,35.1,15.0,30.02,SW,235,23.0,28.0,44,0.00,,,0.00,weatherlink.com 1.10,2013-03-18 22:40:00,
2013-03-18 16:55:00,35.0,15.0,30.02,WSW,250,9.0,21.0,44,0.00,,,0.00,weatherlink.com 1.10,2013-03-18 22:55:00,
2013-03-18 17:10:00,35.7,15.0,30.02,West,263,13.0,17.0,43,0.00,,,0.00,weatherlink.com 1.10,2013-03-18 23:10:00,
2013-03-18 17:25:00,37.6,15.0,30.02,WSW,242,11.0,16.0,40,0.00,,,0.00,weatherlink.com 1.10,2013-03-18 23:25:00,
2013-03-18 17:40:00,36.8,13.0,30.02,WSW,247,12.0,19.0,37,0.00,,,0.00,weatherlink.com 1.10,2013-03-18 23:40:00,
2013-03-18 17:56:00,36.3,13.0,30.02,West,276,18.0,20.0,39,0.00,,,0.00,weatherlink.com 1.10,2013-03-18 23:56:00,
2013-03-18 18:11:00,36.0,14.0,30.01,SW,232,10.0,23.0,41,0.00,,,0.00,weatherlink.com 1.10,2013-03-19 00:11:00,
2013-03-18 18:26:00,35.9,15.0,30.01,SW,215,17.0,25.0,42,0.00,,,0.00,weatherlink.com 1.10,2013-03-19 00:26:00,
2013-03-18 18:41:00,36.1,14.0,30.02,WSW,241,16.0,24.0,41,0.00,,,0.00,weatherlink.com 1.10,2013-03-19 00:41:00,
2013-03-18 18:56:00,35.8,15.0,30.02,SW,233,15.0,26.0,42,0.00,,,0.00,weatherlink.com 1.10,2013-03-19 00:56:00,
2013-03-18 19:11:00,35.2,15.0,30.02,SW,225,15.0,18.0,44,0.00,,,0.00,weatherlink.com 1.10,2013-03-19 01:11:00,
2013-03-18 19:26:00,35.1,15.0,30.02,SW,235,8.0,18.0,43,0.00,,,0.00,weatherlink.com 1.10,2013-03-19 01:26:00,
2013-03-18 19:41:00,34.9,15.0,30.02,SW,227,9.0,14.0,44,0.00,,,0.00,weatherlink.com 1.10,2013-03-19 01:41:00,
2013-03-18 19:56:00,35.0,14.0,30.03,SW,220,8.0,16.0,43,0.00,,,0.00,weatherlink.com 1.10,2013-03-19 01:56:00,
2013-03-18 20:11:00,34.8,15.0,30.04,SW,221,8.0,16.0,44,0.00,,,0.00,weatherlink.com 1.10,2013-03-19 02:11:00,
2013-03-18 20:26:00,34.8,14.0,30.04,WSW,245,12.0,19.0,43,0.00,,,0.00,weatherlink.com 1.10,2013-03-19 02:26:00,
2013-03-18 20:41:00,34.8,14.0,30.04,WSW,250,9.0,15.0,43,0.00,,,0.00,weatherlink.com 1.10,2013-03-19 02:41:00,
2013-03-18 20:56:00,34.6,14.0,30.05,SW,233,7.0,15.0,43,0.00,,,0.00,weatherlink.com 1.10,2013-03-19 02:56:00,
2013-03-18 21:11:00,34.5,13.0,30.05,SW,236,9.0,16.0,42,0.00,,,0.00,weatherlink.com 1.10,2013-03-19 03:11:00,
2013-03-18 21:26:00,34.6,14.0,30.05,West,260,5.0,14.0,43,0.00,,,0.00,weatherlink.com 1.10,2013-03-19 03:26:00,
2013-03-18 21:42:00,33.9,15.0,30.07,WNW,300,8.0,11.0,46,0.00,,,0.00,weatherlink.com 1.10,2013-03-19 03:42:00,
2013-03-18 21:56:00,33.4,15.0,30.07,West,272,13.0,18.0,47,0.00,,,0.00,weatherlink.com 1.10,2013-03-19 03:56:00,
2013-03-18 22:26:00,32.5,15.0,30.09,WNW,285,9.0,12.0,48,0.00,,,0.00,weatherlink.com 1.10,2013-03-19 04:26:00,
2013-03-18 23:26:00,31.6,14.0,30.11,WNW,283,8.0,12.0,48,0.00,,,0.00,weatherlink.com 1.10,2013-03-19 05:26:00,
2013-03-18 23:56:00,30.8,14.0,30.12,WNW,283,7.0,9.0,49,0.00,,,0.00,weatherlink.com 1.10,2013-03-19 05:56:00,